Weather Roundup
Issued by NWS Springfield, MO

Home | Current Version | Previous Version | Text Only | Print | Product List | Glossary On
Versions: 1 2 3 4 5 6 7 8 9 10 11 12 13 14 15 16 17 18 19 20 21 22 23 24 25 26 27 28 29 30 31 32 33 34 35 36 37 38 39 40 41 42 43 44 45 46 47 48 49 50
000
NZUS99 KSGF 020059
HRRSGF

HOURLY WEATHER
NATIONAL WEATHER SERVICE SPRINGFIELD MO
800 PM CDT WED OCT 01 2014

......SGF CWA......

CITY           SKY/WX    TMP DP  RH WIND       PRES   REMARKS
SPRINGFIELD    MOCLDY    77  65  66 S7        29.80R
JOPLIN         CLEAR     78  67  68 S17       29.74S
WEST PLAINS    MOCLDY    76  67  73 SE7       29.86R
ROLLA          CLOUDY    79  64  60 S10G22    29.81R
OSAGE BEACH    CLOUDY    72  59  64 N10G31    29.82R
BRANSON        PTCLDY    77  66  69 S7        29.82S

......SURROUNDING SGF CWA......

CITY           SKY/WX    TMP DP  RH WIND       PRES   REMARKS
CHANUTE        PTCLDY    75  67  76 SE14      29.69S
PARSONS        LGT RAIN  76  70  82 S14G26    29.71R
COFFEYVILLE    PTCLDY    79  68  69 S14       29.70R
EMPORIA        LGT RAIN  73  65  75 S13       29.70R
SILOAM SPRINGS CLEAR     75  64  69 S7        29.81R
HARRISON AR    CLEAR     75  67  76 SE6       29.84R
NEAR YELLVILLE CLEAR     79  64  61 SE6       29.82S

......KANSAS AND MISSOURI......

CITY           SKY/WX    TMP DP  RH WIND       PRES   REMARKS
KANSAS CTY INT MOCLDY    69  65  86 E7        29.75S
DOWNTOWN KC    MOCLDY    68  65  90 E8        29.74R
COLUMBIA       LGT RAIN  68  66  93 NW9G20    29.84R
SEDALIA        CLOUDY    65  63  93 E8        29.76F
ST JOSEPH      PTCLDY    73  67  81 SE10      29.74R
ST LOUIS       CLOUDY    84  63  49 S13G21    29.82R
SPIRIT OF STL  CLOUDY    80  63  55 SE5       29.80R
KIRKSVILLE     CLOUDY    65  65 100 S5        29.83R FOG
WICHITA        PTCLDY    79  61  53 S5        29.65R
TOPEKA         PTCLDY    76  69  79 E6        29.69S
OLATHE         MOCLDY    69  67  93 E10       29.73S

......TENNESSEE......

CITY           SKY/WX    TMP DP  RH WIND       PRES   REMARKS
MEMPHIS        MOCLDY    82  63  52 SE8       29.90R
NASHVILLE      PTCLDY    76  58  53 SE5       29.96R

......ARKANSAS.......

CITY           SKY/WX    TMP DP  RH WIND       PRES   REMARKS
FAYETTEVILLE   CLEAR     74  68  81 S5        29.81S
FT SMITH       CLEAR     79  69  71 SE5       29.78R
LITTLE ROCK    CLEAR     78  69  73 SE3       29.84R

......OKLAHOMA.......

CITY           SKY/WX    TMP DP  RH WIND       PRES   REMARKS
TULSA          PTCLDY    83  68  60 S17       29.71R
PONCA CITY     CLEAR     86  61  42 S8        29.66R
MCALESTER      CLEAR     81  69  67 S6        29.77R
OKLAHOMA CITY  PTCLDY    84  65  52 SE16G24   29.71R

......IOWA............

CITY           SKY/WX    TMP DP  RH WIND       PRES   REMARKS
DES MOINES     PTCLDY    67  63  87 SE5       29.78R
QUAD CITIES    MOCLDY    65  60  84 CALM      29.82S

......ILLINOIS........

CITY           SKY/WX    TMP DP  RH WIND       PRES   REMARKS
QUINCY         CLOUDY    65  63  93 SE9       29.80F
CHICAGO        MOCLDY    66  53  63 SE13      29.90S



USA.gov is the U.S. government's official web portal to all federal, state and local government web resources and services.